When you browse on this site, cookies collect data to enhance your experience and personalize the content and advertising you see.
Visit our Privacy Policy to learn more. By continuing to use the site, you agree to this use of cookies and data.
  • In United Kingdom
  • List of Countries
  • For 7 days
  • Water Temperature
  • Satellite Maps
  • Weather Map
  • Weather Widgets
  • user-avatar
    Login

    Hourly Weather Camopi

    Today, 24 April, Wednesday

    Time Temperature Precipitation Wind Pressure Humidity
    00:00 +22°C° 0 mm 0 mps 749 mmHg 99%
    01:00 +22°C° 0 mm 0 mps 749 mmHg 99%
    02:00 +22°C° 0 mm 0 mps 749 mmHg 99%
    03:00 +22°C° 0 mm 0 mps 749 mmHg 99%
    04:00 +22°C° 0 mm 0 mps 749 mmHg 99%
    05:00 +22°C° 0 mm 0 mps 749 mmHg 99%
    06:00 +22°C° 0 mm 0 mps 749 mmHg 99%
    07:00 +23°C° 0 mm 0 mps 749 mmHg 97%
    08:00 +24°C° 0 mm 0 mps 750 mmHg 94%
    09:00 +25°C° 0 mm 0 mps 750 mmHg 92%
    10:00 +27°C° 0.7 mm 0 mps 750 mmHg 88%
    11:00 +28°C° 0.7 mm 0 mps 750 mmHg 83%
    12:00 +31°C° 0.7 mm 1 mps 750 mmHg 79%
    13:00 +30°C° 1.7 mm 1 mps 749 mmHg 84%
    14:00 +30°C° 1.7 mm 1 mps 749 mmHg 88%
    15:00 +29°C° 1.7 mm 1 mps 748 mmHg 92%
    16:00 +28°C° 1 mm 1 mps 748 mmHg 94%
    17:00 +28°C° 1 mm 1 mps 748 mmHg 95%
    18:00 +27°C° 1 mm 1 mps 748 mmHg 97%
    19:00 +27°C° 0.4 mm 1 mps 748 mmHg 97%
    20:00 +26°C° 0.4 mm 1 mps 749 mmHg 98%
    21:00 +24°C° 0.4 mm 0 mps 749 mmHg 98%
    22:00 +23°C° 0.1 mm 0 mps 750 mmHg 98%
    23:00 +23°C° 0.1 mm 0 mps 750 mmHg 98%

    Tomorrow, 25 April, Thursday

    Time Temperature Precipitation Wind Pressure Humidity
    00:00 +23°C° 0.1 mm 0 mps 750 mmHg 99%
    01:00 +23°C° 0.8 mm 0 mps 750 mmHg 99%
    02:00 +23°C° 0.8 mm 0 mps 749 mmHg 99%
    03:00 +23°C° 0.8 mm 0 mps 749 mmHg 99%
    04:00 +22°C° 0.2 mm 0 mps 749 mmHg 99%
    05:00 +22°C° 0.2 mm 0 mps 749 mmHg 99%
    06:00 +22°C° 0.2 mm 0 mps 749 mmHg 99%
    07:00 +25°C° 0.1 mm 1 mps 749 mmHg 97%
    08:00 +26°C° 0.1 mm 1 mps 750 mmHg 94%
    09:00 +28°C° 0.1 mm 1 mps 750 mmHg 91%
    10:00 +28°C° 0.5 mm 1 mps 750 mmHg 90%
    11:00 +28°C° 0.5 mm 1 mps 750 mmHg 89%
    12:00 +29°C° 0.5 mm 1 mps 750 mmHg 88%
    13:00 +29°C° 0.4 mm 1 mps 749 mmHg 87%
    14:00 +29°C° 0.4 mm 1 mps 749 mmHg 85%
    15:00 +30°C° 0.4 mm 1 mps 748 mmHg 83%
    16:00 +29°C° 0.4 mm 1 mps 748 mmHg 86%
    17:00 +29°C° 0.4 mm 1 mps 747 mmHg 89%
    18:00 +28°C° 0.4 mm 1 mps 747 mmHg 92%
    19:00 +27°C° 0.2 mm 1 mps 748 mmHg 94%
    20:00 +26°C° 0.2 mm 1 mps 749 mmHg 96%
    21:00 +25°C° 0.2 mm 1 mps 750 mmHg 98%
    22:00 +25°C° 0 mm 1 mps 750 mmHg 98%
    23:00 +25°C° 0 mm 1 mps 750 mmHg 99%

    Day after tomorrow, 26 April, Friday

    Time Temperature Precipitation Wind Pressure Humidity
    00:00 +22°C° 0 mm 0 mps 751 mmHg 99%
    01:00 +22°C° 0 mm 0 mps 750 mmHg 99%
    02:00 +22°C° 0 mm 0 mps 750 mmHg 99%
    03:00 +22°C° 0 mm 0 mps 749 mmHg 99%
    04:00 +22°C° 0 mm 0 mps 749 mmHg 99%
    05:00 +22°C° 0 mm 0 mps 749 mmHg 99%
    06:00 +22°C° 0 mm 0 mps 749 mmHg 99%
    07:00 +25°C° 0 mm 1 mps 750 mmHg 95%
    08:00 +26°C° 0 mm 1 mps 750 mmHg 92%
    09:00 +28°C° 0 mm 1 mps 751 mmHg 88%
    10:00 +29°C° 0.2 mm 1 mps 750 mmHg 80%
    11:00 +31°C° 0.2 mm 2 mps 750 mmHg 72%
    12:00 +32°C° 0.2 mm 2 mps 750 mmHg 65%
    13:00 +32°C° 0.2 mm 2 mps 749 mmHg 64%
    14:00 +32°C° 0.2 mm 2 mps 748 mmHg 63%
    15:00 +34°C° 0.2 mm 2 mps 747 mmHg 62%
    16:00 +31°C° 0.3 mm 2 mps 747 mmHg 71%
    17:00 +29°C° 0.3 mm 2 mps 747 mmHg 80%
    18:00 +28°C° 0.3 mm 2 mps 747 mmHg 89%
    19:00 +27°C° 0 mm 1 mps 748 mmHg 91%
    20:00 +26°C° 0 mm 1 mps 748 mmHg 93%
    21:00 +25°C° 0 mm 1 mps 749 mmHg 96%
    22:00 +25°C° 0 mm 1 mps 749 mmHg 97%
    23:00 +25°C° 0 mm 1 mps 750 mmHg 98%

    27 April, Saturday

    Time Temperature Precipitation Wind Pressure Humidity
    00:00 +22°C° 0 mm 0 mps 750 mmHg 99%
    01:00 +22°C° 0 mm 0 mps 749 mmHg 99%
    02:00 +22°C° 0 mm 0 mps 749 mmHg 99%
    03:00 +21°C° 0 mm 0 mps 748 mmHg 99%
    04:00 +21°C° 0 mm 0 mps 748 mmHg 99%
    05:00 +21°C° 0 mm 0 mps 749 mmHg 99%
    06:00 +23°C° 0 mm 1 mps 749 mmHg 99%
    07:00 +25°C° 0 mm 1 mps 750 mmHg 92%
    08:00 +26°C° 0 mm 1 mps 750 mmHg 85%
    09:00 +28°C° 0 mm 2 mps 751 mmHg 77%
    10:00 +29°C° 0.1 mm 2 mps 751 mmHg 74%
    11:00 +29°C° 0.1 mm 2 mps 750 mmHg 71%
    12:00 +30°C° 0.1 mm 2 mps 750 mmHg 68%
    13:00 +30°C° 0.1 mm 2 mps 749 mmHg 68%
    14:00 +30°C° 0.1 mm 2 mps 748 mmHg 69%
    15:00 +30°C° 0.1 mm 2 mps 747 mmHg 70%
    16:00 +30°C° 0.1 mm 2 mps 747 mmHg 74%
    17:00 +29°C° 0.1 mm 1 mps 747 mmHg 79%
    18:00 +28°C° 0.1 mm 1 mps 747 mmHg 84%
    19:00 +27°C° 0 mm 1 mps 748 mmHg 88%
    20:00 +26°C° 0 mm 1 mps 748 mmHg 92%
    21:00 +25°C° 0 mm 1 mps 749 mmHg 96%
    22:00 +24°C° 0 mm 1 mps 749 mmHg 97%
    23:00 +24°C° 0 mm 1 mps 749 mmHg 98%

    28 April, Sunday

    Time Temperature Precipitation Wind Pressure Humidity
    00:00 +22°C° 0 mm 0 mps 749 mmHg 99%
    01:00 +22°C° 0 mm 0 mps 749 mmHg 99%
    02:00 +21°C° 0 mm 0 mps 748 mmHg 99%
    03:00 +21°C° 0 mm 0 mps 748 mmHg 99%
    04:00 +21°C° 0 mm 0 mps 748 mmHg 99%
    05:00 +21°C° 0 mm 0 mps 748 mmHg 99%
    06:00 +21°C° 0 mm 0 mps 749 mmHg 99%
    07:00 +25°C° 0 mm 1 mps 749 mmHg 93%
    08:00 +26°C° 0 mm 1 mps 750 mmHg 87%
    09:00 +28°C° 0 mm 1 mps 750 mmHg 81%
    10:00 +29°C° 0.1 mm 2 mps 750 mmHg 78%
    11:00 +29°C° 0.1 mm 2 mps 750 mmHg 74%
    12:00 +30°C° 0.1 mm 2 mps 749 mmHg 71%
    13:00 +30°C° 0.1 mm 2 mps 749 mmHg 72%
    14:00 +30°C° 0.1 mm 2 mps 748 mmHg 74%
    15:00 +30°C° 0.1 mm 2 mps 747 mmHg 75%
    16:00 +29°C° 0.1 mm 2 mps 747 mmHg 79%
    17:00 +28°C° 0.1 mm 1 mps 748 mmHg 82%
    18:00 +28°C° 0.1 mm 1 mps 748 mmHg 85%
    19:00 +27°C° 0 mm 1 mps 748 mmHg 89%
    20:00 +26°C° 0 mm 1 mps 749 mmHg 92%
    21:00 +25°C° 0 mm 1 mps 749 mmHg 95%
    22:00 +25°C° 0.1 mm 1 mps 749 mmHg 95%
    23:00 +25°C° 0.1 mm 1 mps 749 mmHg 95%

    29 April, Monday

    Time Temperature Precipitation Wind Pressure Humidity
    00:00 +25°C° 0.1 mm 1 mps 749 mmHg 95%
    01:00 +25°C° 0.1 mm 1 mps 749 mmHg 95%
    02:00 +25°C° 0.1 mm 1 mps 748 mmHg 96%
    03:00 +24°C° 0.1 mm 1 mps 748 mmHg 96%
    04:00 +24°C° 0.1 mm 1 mps 748 mmHg 96%
    05:00 +24°C° 0.1 mm 1 mps 749 mmHg 96%
    06:00 +24°C° 0.1 mm 1 mps 749 mmHg 96%
    07:00 +25°C° 0.1 mm 1 mps 749 mmHg 95%
    08:00 +25°C° 0.1 mm 1 mps 750 mmHg 94%
    09:00 +26°C° 0.1 mm 1 mps 751 mmHg 93%
    10:00 +27°C° 0.1 mm 2 mps 750 mmHg 86%
    11:00 +28°C° 0.1 mm 2 mps 750 mmHg 80%
    12:00 +29°C° 0.1 mm 2 mps 750 mmHg 74%
    13:00 +29°C° 0.1 mm 2 mps 749 mmHg 74%
    14:00 +29°C° 0.1 mm 2 mps 749 mmHg 74%
    15:00 +29°C° 0.1 mm 2 mps 748 mmHg 74%
    16:00 +28°C° 0 mm 2 mps 748 mmHg 78%
    17:00 +27°C° 0 mm 1 mps 748 mmHg 83%
    18:00 +27°C° 0 mm 1 mps 748 mmHg 88%
    19:00 +26°C° 0 mm 1 mps 749 mmHg 90%
    20:00 +25°C° 0 mm 1 mps 749 mmHg 92%
    21:00 +25°C° 0 mm 1 mps 749 mmHg 94%
    22:00 +25°C° 0 mm 1 mps 750 mmHg 94%
    23:00 +25°C° 0 mm 1 mps 750 mmHg 93%
    Show more